| time (UTC) | temp C | wind direction | speed KPH | gust KPH | rain 1hr cm | rain 24hr cm | rain mn cm | humidity % | barometer mb |
| 20260509212723 | 17 | 330 | 6.4 | 9.7 | 0.00 | 0.41 | 0.41 | 71 | 1007.9 |
| 20260509212220 | 17 | 234 | 8.0 | 8.0 | 0.00 | 0.41 | 0.41 | 72 | 1007.6 |
| 20260509211716 | 17 | 251 | 11.3 | 14.5 | 0.00 | 0.41 | 0.41 | 71 | 1008.2 |
| 20260509211213 | 18 | 317 | 6.4 | 8.0 | 0.00 | 0.41 | 0.41 | 70 | 1008.0 |
| 20260509210709 | 18 | 286 | 3.2 | 4.8 | 0.00 | 0.41 | 0.41 | 73 | 1008.4 |
| 20260509210202 | 18 | 231 | 6.4 | 8.0 | 0.00 | 0.41 | 0.41 | 72 | 1008.4 |
| 20260509205702 | 18 | 310 | 4.8 | 8.0 | 0.00 | 0.41 | 0.41 | 71 | 1008.2 |
| 20260509205201 | 18 | 331 | 3.2 | 4.8 | 0.00 | 0.41 | 0.41 | 71 | 1008.6 |
| 20260509204658 | 18 | 239 | 8.0 | 9.7 | 0.00 | 0.41 | 0.41 | 70 | 1008.4 |
| 20260509204154 | 18 | 243 | 8.0 | 9.7 | 0.00 | 0.41 | 0.41 | 71 | 1008.5 |
| 20260509203650 | 18 | 269 | 4.8 | 4.8 | 0.00 | 0.41 | 0.41 | 72 | 1008.4 |
| 20260509203148 | 18 | 194 | 12.9 | 14.5 | 0.00 | 0.41 | 0.41 | 74 | 1008.5 |
| 20260509202643 | 18 | 230 | 8.0 | 12.9 | 0.00 | 0.41 | 0.41 | 74 | 1008.8 |
| 20260509202139 | 17 | 239 | 8.0 | 9.7 | 0.00 | 0.41 | 0.41 | 74 | 1008.8 |
| 20260509201634 | 17 | 310 | 8.0 | 12.9 | 0.00 | 0.41 | 0.41 | 75 | 1008.7 |
| 20260509201131 | 17 | 204 | 17.7 | 24.1 | 0.00 | 0.41 | 0.41 | 74 | 1008.9 |
| 20260509200626 | 17 | 206 | 4.8 | 8.0 | 0.00 | 0.41 | 0.41 | 77 | 1008.9 |
| 20260509200117 | 18 | 263 | 4.8 | 8.0 | 0.00 | 0.41 | 0.41 | 74 | 1008.9 |
| 20260509195613 | 18 | 319 | 1.6 | 4.8 | 0.00 | 0.41 | 0.41 | 69 | 1009.0 |
| 20260509195108 | 18 | 318 | 3.2 | 4.8 | 0.00 | 0.41 | 0.41 | 74 | 1009.3 |
| 20260509194607 | 17 | 319 | 1.6 | 3.2 | 0.00 | 0.41 | 0.41 | 72 | 1009.0 |
| 20260509194105 | 17 | 318 | 0.0 | 0.0 | 0.00 | 0.41 | 0.41 | 73 | 1009.0 |
| 20260509193601 | 17 | 320 | 4.8 | 4.8 | 0.00 | 0.41 | 0.41 | 77 | 1009.0 |
| 20260509193057 | 17 | 216 | 9.7 | 12.9 | 0.00 | 0.41 | 0.41 | 76 | 1008.9 |
| 20260509192554 | 16 | 231 | 4.8 | 8.0 | 0.00 | 0.41 | 0.41 | 79 | 1009.2 |
| 20260509192048 | 17 | 282 | 4.8 | 9.7 | 0.00 | 0.41 | 0.41 | 78 | 1009.3 |
| 20260509191543 | 16 | 253 | 4.8 | 4.8 | 0.00 | 0.41 | 0.41 | 80 | 1009.4 |
| 20260509191039 | 16 | 250 | 3.2 | 4.8 | 0.00 | 0.41 | 0.41 | 82 | 1009.4 |
| 20260509190536 | 16 | 269 | 4.8 | 8.0 | 0.00 | 0.41 | 0.41 | 80 | 1009.2 |
| 20260509190034 | 16 | 247 | 3.2 | 4.8 | 0.00 | 0.41 | 0.41 | 81 | 1009.2 |
| 20260509185531 | 17 | 331 | 4.8 | 4.8 | 0.00 | 0.41 | 0.41 | 80 | 1009.3 |
| 20260509185027 | 16 | 306 | 6.4 | 9.7 | 0.00 | 0.41 | 0.41 | 83 | 1009.2 |
| 20260509184526 | 16 | 198 | 9.7 | 19.3 | 0.00 | 0.41 | 0.41 | 82 | 1009.6 |
| 20260509184022 | 16 | 307 | 3.2 | 4.8 | 0.00 | 0.41 | 0.41 | 83 | 1009.5 |
| 20260509183517 | 16 | 289 | 6.4 | 8.0 | 0.00 | 0.41 | 0.41 | 83 | 1009.6 |
| 20260509183013 | 15 | 237 | 11.3 | 14.5 | 0.00 | 0.41 | 0.41 | 87 | 1009.5 |
| 20260509182510 | 15 | 258 | 11.3 | 17.7 | 0.00 | 0.41 | 0.41 | 86 | 1009.5 |
| 20260509182007 | 15 | 228 | 8.0 | 9.7 | 0.00 | 0.41 | 0.41 | 86 | 1009.6 |
| 20260509181505 | 16 | 237 | 8.0 | 9.7 | 0.00 | 0.41 | 0.41 | 88 | 1009.5 |
| 20260509181002 | 15 | 203 | 12.9 | 14.5 | 0.00 | 0.41 | 0.41 | 89 | 1009.6 |
| 20260509180457 | 15 | 327 | 4.8 | 4.8 | 0.00 | 0.41 | 0.41 | 89 | 1009.6 |
| 20260509175955 | 15 | 317 | 1.6 | 3.2 | 0.00 | 0.41 | 0.41 | 88 | 1009.6 |
| 20260509175451 | 15 | 315 | 8.0 | 9.7 | 0.00 | 0.41 | 0.41 | 89 | 1009.6 |
| 20260509174947 | 15 | 80 | 4.8 | 9.7 | 0.00 | 0.41 | 0.41 | 87 | 1009.6 |
| 20260509174443 | 15 | 231 | 8.0 | 9.7 | 0.00 | 0.41 | 0.41 | 92 | 1009.6 |
| 20260509173938 | 15 | 337 | 0.0 | 3.2 | 0.00 | 0.41 | 0.41 | 92 | 1009.8 |
| 20260509173433 | 14 | 312 | 3.2 | 4.8 | 0.00 | 0.41 | 0.41 | 93 | 1009.9 |
| 20260509172930 | 14 | 247 | 4.8 | 8.0 | 0.00 | 0.41 | 0.41 | 93 | 1009.9 |
| 20260509172427 | 14 | 314 | 3.2 | 3.2 | 0.00 | 0.41 | 0.41 | 93 | 1009.8 |
| 20260509171922 | 14 | 338 | 4.8 | 4.8 | 0.00 | 0.41 | 0.41 | 93 | 1009.8 |
| 20260509171419 | 14 | 341 | 0.0 | 0.0 | 0.00 | 0.41 | 0.41 | 94 | 1009.9 |
| 20260509170915 | 14 | 249 | 4.8 | 4.8 | 0.00 | 0.41 | 0.41 | 95 | 1009.8 |
| 20260509170410 | 13 | 332 | 0.0 | 0.0 | 0.00 | 0.41 | 0.41 | 96 | 1010.0 |
| 20260509165907 | 13 | 319 | 3.2 | 3.2 | 0.00 | 0.41 | 0.41 | 97 | 1010.0 |
| 20260509165400 | 12 | 336 | 0.0 | 3.2 | 0.00 | 0.41 | 0.41 | 98 | 1010.0 |
| 20260509164857 | 12 | 323 | 3.2 | 3.2 | 0.00 | 0.41 | 0.41 | 98 | 1009.9 |
| 20260509164352 | 12 | 333 | 0.0 | 0.0 | 0.00 | 0.41 | 0.41 | 99 | 1009.8 |
| 20260509163849 | 12 | 230 | 12.9 | 17.7 | 0.00 | 0.41 | 0.41 | 98 | 1009.7 |
| 20260509163346 | 13 | 262 | 3.2 | 4.8 | 0.00 | 0.41 | 0.41 | 98 | 1009.6 |
| 20260509162839 | 12 | 211 | 6.4 | 8.0 | 0.00 | 0.41 | 0.41 | 99 | 1009.9 |
| 20260509162332 | 12 | 290 | 3.2 | 4.8 | 0.00 | 0.41 | 0.41 | 99 | 1009.9 |
| 20260509161829 | 12 | 284 | 4.8 | 4.8 | 0.00 | 0.41 | 0.41 | 99 | 1009.9 |
| 20260509161325 | 12 | 268 | 4.8 | 8.0 | 0.00 | 0.41 | 0.41 | 99 | 1009.8 |
| 20260509160821 | 12 | 262 | 4.8 | 8.0 | 0.00 | 0.41 | 0.41 | 99 | 1009.7 |
| 20260509160317 | 11 | 318 | 4.8 | 8.0 | 0.00 | 0.41 | 0.41 | 99 | 1009.7 |
| 20260509155812 | 11 | 326 | 6.4 | 8.0 | 0.00 | 0.41 | 0.41 | 99 | 1009.6 |
| 20260509155309 | 11 | 263 | 6.4 | 8.0 | 0.00 | 0.41 | 0.41 | 99 | 1009.7 |
| 20260509154805 | 11 | 229 | 8.0 | 12.9 | 0.00 | 0.41 | 0.41 | 99 | 1009.6 |
| 20260509154302 | 11 | 343 | 0.0 | 0.0 | 0.00 | 0.41 | 0.41 | 99 | 1009.5 |
| 20260509153759 | 11 | 323 | 1.6 | 3.2 | 0.00 | 0.41 | 0.41 | 99 | 1009.9 |
| 20260509153255 | 10 | 291 | 3.2 | 3.2 | 0.00 | 0.41 | 0.41 | 99 | 1009.7 |
| 20260509152752 | 11 | 262 | 4.8 | 4.8 | 0.00 | 0.41 | 0.41 | 99 | 1009.6 |
| 20260509152248 | 11 | 212 | 6.4 | 9.7 | 0.00 | 0.41 | 0.41 | 99 | 1009.5 |
| 20260509151745 | 10 | 247 | 4.8 | 8.0 | 0.00 | 0.41 | 0.41 | 99 | 1009.6 |
| 20260509151242 | 10 | 220 | 3.2 | 4.8 | 0.00 | 0.41 | 0.41 | 99 | 1009.7 |
| 20260509150740 | 10 | 285 | 4.8 | 8.0 | 0.18 | 0.41 | 0.41 | 99 | 1009.6 |
| 20260509150238 | 10 | 258 | 3.2 | 4.8 | 0.18 | 0.41 | 0.41 | 99 | 1009.7 |
| 20260509145734 | 10 | 316 | 1.6 | 3.2 | 0.00 | 0.38 | 0.38 | 99 | 1009.7 |
| 20260509145229 | 10 | 319 | 3.2 | 4.8 | 0.00 | 0.38 | 0.38 | 99 | 1009.7 |
| 20260509144726 | 10 | 284 | 1.6 | 3.2 | 0.00 | 0.38 | 0.38 | 99 | 1009.6 |
| 20260509144222 | 10 | 321 | 1.6 | 3.2 | 0.00 | 0.38 | 0.38 | 99 | 1009.7 |
| 20260509143720 | 10 | 263 | 4.8 | 4.8 | 0.00 | 0.38 | 0.38 | 99 | 1009.7 |
| 20260509143217 | 10 | 301 | 4.8 | 4.8 | 0.00 | 0.38 | 0.38 | 99 | 1009.6 |
| 20260509142712 | 10 | 265 | 4.8 | 4.8 | 0.13 | 0.38 | 0.38 | 99 | 1009.7 |
| 20260509142209 | 10 | 320 | 3.2 | 4.8 | 0.13 | 0.38 | 0.38 | 99 | 1009.6 |
| 20260509141705 | 10 | 213 | 4.8 | 8.0 | 0.00 | 0.36 | 0.36 | 99 | 1009.6 |
| 20260509141203 | 10 | 313 | 3.2 | 4.8 | 0.00 | 0.36 | 0.36 | 99 | 1009.6 |
| 20260509140658 | 10 | 252 | 1.6 | 3.2 | 0.00 | 0.36 | 0.36 | 99 | 1009.8 |
| 20260509140156 | 10 | 284 | 4.8 | 4.8 | 0.00 | 0.36 | 0.36 | 99 | 1009.6 |
| 20260509135653 | 10 | 320 | 3.2 | 3.2 | 0.00 | 0.36 | 0.36 | 99 | 1009.9 |
| 20260509135152 | 10 | 285 | 4.8 | 4.8 | 0.00 | 0.36 | 0.36 | 99 | 1009.9 |
| 20260509134648 | 10 | 304 | 3.2 | 3.2 | 0.18 | 0.36 | 0.36 | 99 | 1009.7 |
| 20260509134145 | 10 | 276 | 1.6 | 3.2 | 0.18 | 0.36 | 0.36 | 99 | 1009.8 |
| 20260509133642 | 10 | 288 | 0.0 | 3.2 | 0.00 | 0.33 | 0.33 | 99 | 1009.9 |
| 20260509133139 | 10 | 286 | 1.6 | 4.8 | 0.00 | 0.33 | 0.33 | 99 | 1009.9 |
| 20260509132638 | 10 | 234 | 4.8 | 4.8 | 0.13 | 0.33 | 0.33 | 99 | 1009.9 |
| 20260509132136 | 10 | 278 | 8.0 | 9.7 | 0.13 | 0.33 | 0.33 | 99 | 1009.6 |
| 20260509131632 | 10 | 253 | 1.6 | 4.8 | 0.00 | 0.30 | 0.30 | 99 | 1009.9 |
| 20260509131129 | 10 | 309 | 4.8 | 8.0 | 0.00 | 0.30 | 0.30 | 99 | 1009.8 |
| 20260509130625 | 10 | 231 | 6.4 | 8.0 | 0.00 | 0.30 | 0.30 | 99 | 1009.7 |
| 20260509130121 | 10 | 203 | 9.7 | 14.5 | 0.00 | 0.30 | 0.30 | 99 | 1009.8 |
| 20260509125618 | 10 | 212 | 8.0 | 12.9 | 0.00 | 0.30 | 0.30 | 99 | 1009.9 |
| 20260509125114 | 10 | 232 | 8.0 | 12.9 | 0.00 | 0.30 | 0.30 | 99 | 1009.8 |
| 20260509124611 | 10 | 291 | 4.8 | 4.8 | 0.00 | 0.30 | 0.30 | 99 | 1009.8 |
| 20260509124108 | 10 | 216 | 8.0 | 9.7 | 0.00 | 0.30 | 0.30 | 99 | 1010.0 |
| 20260509123606 | 10 | 193 | 8.0 | 8.0 | 0.00 | 0.30 | 0.30 | 99 | 1010.0 |
| 20260509123103 | 10 | 8 | 0.0 | 0.0 | 0.00 | 0.30 | 0.30 | 99 | 1010.1 |
| 20260509122558 | 10 | 239 | 4.8 | 8.0 | 0.00 | 0.30 | 0.30 | 99 | 1010.1 |
| 20260509122056 | 9 | 239 | 8.0 | 9.7 | 0.00 | 0.30 | 0.30 | 99 | 1009.9 |
| 20260509121552 | 9 | 190 | 8.0 | 9.7 | 0.00 | 0.30 | 0.30 | 99 | 1010.0 |
| 20260509121050 | 9 | 227 | 6.4 | 9.7 | 0.00 | 0.30 | 0.30 | 99 | 1010.1 |
| 20260509120548 | 9 | 215 | 6.4 | 8.0 | 0.00 | 0.30 | 0.30 | 99 | 1010.1 |
| 20260509120046 | 9 | 219 | 4.8 | 8.0 | 0.00 | 0.30 | 0.30 | 99 | 1010.1 |
| 20260509115543 | 9 | 228 | 4.8 | 8.0 | 0.00 | 0.30 | 0.30 | 99 | 1010.1 |
| 20260509115041 | 9 | 221 | 4.8 | 4.8 | 0.18 | 0.30 | 0.30 | 99 | 1010.2 |
| 20260509114538 | 9 | 236 | 4.8 | 8.0 | 0.18 | 0.30 | 0.30 | 99 | 1010.1 |
| 20260509114037 | 8 | 224 | 4.8 | 8.0 | 0.00 | 0.28 | 0.28 | 99 | 1010.0 |
| 20260509113535 | 8 | 221 | 4.8 | 4.8 | 0.00 | 0.28 | 0.28 | 99 | 1010.1 |
| 20260509113033 | 8 | 210 | 4.8 | 8.0 | 0.00 | 0.28 | 0.28 | 99 | 1010.2 |
| 20260509112528 | 8 | 221 | 4.8 | 8.0 | 0.00 | 0.28 | 0.28 | 99 | 1010.1 |
| 20260509112026 | 8 | 185 | 4.8 | 4.8 | 0.18 | 0.28 | 0.28 | 99 | 1010.3 |
| 20260509111523 | 8 | 201 | 4.8 | 4.8 | 0.18 | 0.28 | 0.28 | 99 | 1010.0 |
| 20260509111020 | 8 | 219 | 6.4 | 8.0 | 0.00 | 0.25 | 0.25 | 99 | 1010.1 |
| 20260509110516 | 8 | 174 | 4.8 | 4.8 | 0.00 | 0.25 | 0.25 | 99 | 1009.9 |
| 20260509110014 | 8 | 197 | 6.4 | 8.0 | 0.00 | 0.25 | 0.25 | 99 | 1009.8 |
| 20260509105512 | 8 | 270 | 3.2 | 4.8 | 0.00 | 0.25 | 0.25 | 99 | 1009.8 |
| 20260509105009 | 8 | 179 | 4.8 | 8.0 | 0.00 | 0.25 | 0.25 | 99 | 1009.9 |
| 20260509104506 | 8 | 171 | 8.0 | 9.7 | 0.00 | 0.25 | 0.25 | 99 | 1010.1 |
| 20260509104003 | 8 | 192 | 4.8 | 4.8 | 0.00 | 0.25 | 0.25 | 99 | 1010.1 |
| 20260509103501 | 8 | 352 | 0.0 | 0.0 | 0.00 | 0.25 | 0.25 | 99 | 1010.1 |
| 20260509102959 | 8 | 20 | 0.0 | 3.2 | 0.13 | 0.25 | 0.25 | 99 | 1009.9 |
| 20260509102456 | 8 | 37 | 0.0 | 3.2 | 0.13 | 0.25 | 0.25 | 99 | 1009.9 |
| 20260509101952 | 8 | 37 | 3.2 | 4.8 | 0.00 | 0.23 | 0.23 | 99 | 1010.0 |
| 20260509101449 | 8 | 33 | 1.6 | 3.2 | 0.00 | 0.23 | 0.23 | 99 | 1010.0 |
| 20260509100946 | 8 | 43 | 0.0 | 3.2 | 0.00 | 0.23 | 0.23 | 99 | 1010.0 |
| 20260509100443 | 8 | 177 | 4.8 | 4.8 | 0.18 | 0.23 | 0.23 | 99 | 1010.3 |
| 20260509095939 | 8 | 11 | 0.0 | 0.0 | 0.18 | 0.23 | 0.23 | 99 | 1010.2 |
| 20260509095436 | 8 | 36 | 0.0 | 0.0 | 0.13 | 0.20 | 0.20 | 99 | 1010.5 |
| 20260509094933 | 8 | 357 | 0.0 | 0.0 | 0.30 | 0.20 | 0.20 | 99 | 1010.3 |
| 20260509094430 | 8 | 356 | 0.0 | 0.0 | 0.18 | 0.18 | 0.18 | 99 | 1010.6 |
| 20260509093928 | 8 | 356 | 0.0 | 0.0 | 0.00 | 0.15 | 0.15 | 99 | 1010.6 |
| 20260509093425 | 8 | 357 | 0.0 | 0.0 | 0.00 | 0.15 | 0.15 | 99 | 1010.3 |
| 20260509092923 | 8 | 20 | 0.0 | 0.0 | 0.13 | 0.15 | 0.15 | 99 | 1010.1 |
| 20260509092421 | 8 | 12 | 0.0 | 0.0 | 0.13 | 0.15 | 0.15 | 99 | 1010.8 |
| 20260509091919 | 8 | 0 | 0.0 | 0.0 | 0.00 | 0.13 | 0.13 | 99 | 1010.6 |
| 20260509091416 | 8 | 9 | 0.0 | 0.0 | 0.00 | 0.13 | 0.13 | 99 | 1010.6 |
| 20260509090913 | 8 | 344 | 0.0 | 3.2 | 0.18 | 0.13 | 0.13 | 99 | 1010.6 |
| 20260509090410 | 8 | 202 | 3.2 | 3.2 | 0.18 | 0.13 | 0.13 | 99 | 1010.7 |
| 20260509085908 | 8 | 203 | 1.6 | 3.2 | 0.00 | 0.10 | 0.10 | 99 | 1010.7 |
| 20260509085405 | 8 | 142 | 1.6 | 3.2 | 0.00 | 0.10 | 0.10 | 99 | 1010.7 |
| 20260509084900 | 8 | 142 | 0.0 | 0.0 | 0.00 | 0.10 | 0.10 | 99 | 1010.6 |
| 20260509084357 | 8 | 142 | 0.0 | 0.0 | 0.00 | 0.10 | 0.10 | 99 | 1010.9 |
| 20260509083855 | 8 | 142 | 0.0 | 0.0 | 0.13 | 0.10 | 0.10 | 99 | 1010.8 |
| 20260509083352 | 8 | 142 | 0.0 | 0.0 | 0.13 | 0.10 | 0.10 | 99 | 1011.0 |
| 20260509082849 | 8 | 142 | 0.0 | 0.0 | 0.00 | 0.08 | 0.08 | 99 | 1010.9 |
| 20260509082345 | 8 | 142 | 0.0 | 0.0 | 0.00 | 0.08 | 0.08 | 99 | 1011.0 |
| 20260509081842 | 8 | 142 | 0.0 | 3.2 | 0.00 | 0.08 | 0.08 | 99 | 1011.3 |
| 20260509081340 | 8 | 142 | 0.0 | 0.0 | 0.00 | 0.08 | 0.08 | 99 | 1011.0 |
| 20260509080838 | 8 | 142 | 0.0 | 0.0 | 0.00 | 0.08 | 0.08 | 99 | 1011.0 |
| 20260509080335 | 8 | 142 | 0.0 | 0.0 | 0.00 | 0.08 | 0.08 | 99 | 1010.9 |
| 20260509075833 | 8 | 142 | 0.0 | 3.2 | 0.18 | 0.08 | 0.08 | 99 | 1010.9 |
| 20260509075330 | 8 | 35 | 3.2 | 3.2 | 0.18 | 0.08 | 0.08 | 99 | 1010.9 |
| 20260509074827 | 8 | 109 | 1.6 | 3.2 | 0.00 | 0.05 | 0.05 | 99 | 1010.9 |
| 20260509074325 | 8 | 110 | 0.0 | 3.2 | 0.00 | 0.05 | 0.05 | 99 | 1010.9 |
| 20260509073821 | 8 | 110 | 0.0 | 3.2 | 0.00 | 0.05 | 0.05 | 99 | 1011.0 |
| 20260509073317 | 8 | 94 | 1.6 | 3.2 | 0.00 | 0.05 | 0.05 | 99 | 1011.0 |
| 20260509072814 | 8 | 303 | 3.2 | 4.8 | 0.00 | 0.05 | 0.05 | 99 | 1011.2 |
| 20260509072310 | 8 | 234 | 1.6 | 3.2 | 0.00 | 0.05 | 0.05 | 99 | 1011.1 |
| 20260509071807 | 8 | 147 | 3.2 | 3.2 | 0.00 | 0.05 | 0.05 | 99 | 1011.0 |
| 20260509071305 | 8 | 349 | 1.6 | 3.2 | 0.00 | 0.05 | 0.05 | 99 | 1011.0 |
| 20260509070801 | 8 | 80 | 3.2 | 3.2 | 0.00 | 0.05 | 0.05 | 99 | 1010.8 |
| 20260509070258 | 8 | 59 | 0.0 | 3.2 | 0.00 | 0.05 | 0.05 | 99 | 1010.8 |
| 20260509065754 | 8 | 76 | 3.2 | 3.2 | 0.00 | 0.05 | 0.05 | 99 | 1011.0 |
| 20260509065251 | 8 | 30 | 3.2 | 3.2 | 0.00 | 0.05 | 0.05 | 99 | 1010.5 |
| 20260509064747 | 8 | 93 | 3.2 | 4.8 | 0.00 | 0.05 | 0.05 | 99 | 1010.9 |
| 20260509064244 | 8 | 82 | 3.2 | 4.8 | 0.00 | 0.05 | 0.05 | 99 | 1010.9 |
| 20260509063742 | 8 | 11 | 0.0 | 0.0 | 0.00 | 0.05 | 0.05 | 99 | 1010.8 |
| 20260509063238 | 8 | 23 | 0.0 | 3.2 | 0.00 | 0.05 | 0.05 | 99 | 1011.1 |
| 20260509062735 | 8 | 4 | 0.0 | 0.0 | 0.00 | 0.05 | 0.05 | 99 | 1011.0 |
| 20260509062232 | 8 | 27 | 1.6 | 3.2 | 0.00 | 0.05 | 0.05 | 99 | 1011.4 |
| 20260509061729 | 8 | 8 | 0.0 | 0.0 | 0.00 | 0.05 | 0.05 | 99 | 1011.3 |
| 20260509061227 | 8 | 35 | 3.2 | 3.2 | 0.00 | 0.05 | 0.05 | 99 | 1011.4 |
| 20260509060724 | 8 | 90 | 1.6 | 3.2 | 0.00 | 0.05 | 0.05 | 99 | 1011.4 |
| 20260509060221 | 8 | 64 | 3.2 | 3.2 | 0.00 | 0.05 | 0.05 | 99 | 1011.5 |
| 20260509055716 | 8 | 5 | 0.0 | 3.2 | 0.00 | 0.05 | 0.05 | 99 | 1011.4 |
| 20260509055212 | 8 | 67 | 3.2 | 3.2 | 0.00 | 0.05 | 0.05 | 99 | 1011.8 |
| 20260509054709 | 8 | 80 | 4.8 | 8.0 | 0.13 | 0.05 | 0.05 | 99 | 1011.8 |
| 20260509054206 | 8 | 59 | 3.2 | 3.2 | 0.13 | 0.05 | 0.05 | 99 | 1012.0 |
| 20260509053705 | 8 | 7 | 0.0 | 0.0 | 0.00 | 0.03 | 0.03 | 99 | 1012.0 |
| 20260509053201 | 8 | 20 | 0.0 | 0.0 | 0.00 | 0.03 | 0.03 | 99 | 1011.9 |
| 20260509052659 | 8 | 21 | 0.0 | 3.2 | 0.00 | 0.03 | 0.03 | 99 | 1012.1 |
| 20260509052156 | 8 | 40 | 1.6 | 3.2 | 0.00 | 0.03 | 0.03 | 99 | 1012.2 |
| 20260509051654 | 8 | 21 | 1.6 | 3.2 | 0.00 | 0.03 | 0.03 | 99 | 1012.2 |
| 20260509051151 | 8 | 72 | 3.2 | 4.8 | 0.00 | 0.03 | 0.03 | 99 | 1012.1 |
| 20260509050648 | 8 | 81 | 3.2 | 4.8 | 0.00 | 0.03 | 0.03 | 99 | 1012.3 |
| 20260509050145 | 8 | 72 | 4.8 | 4.8 | 0.00 | 0.03 | 0.03 | 99 | 1012.3 |
| 20260509045642 | 8 | 88 | 8.0 | 8.0 | 0.00 | 0.03 | 0.03 | 99 | 1012.1 |
| 20260509045139 | 8 | 93 | 4.8 | 4.8 | 0.00 | 0.03 | 0.03 | 99 | 1012.2 |
| 20260509044636 | 8 | 84 | 3.2 | 4.8 | 0.00 | 0.03 | 0.03 | 99 | 1012.3 |
| 20260509044134 | 8 | 93 | 4.8 | 4.8 | 0.00 | 0.03 | 0.03 | 99 | 1012.2 |
| 20260509043630 | 8 | 12 | 0.0 | 0.0 | 0.00 | 0.03 | 0.03 | 99 | 1012.3 |
| 20260509043126 | 8 | 29 | 0.0 | 0.0 | 0.00 | 0.03 | 0.03 | 99 | 1012.6 |
| 20260509042622 | 8 | 68 | 3.2 | 4.8 | 0.00 | 0.03 | 0.03 | 99 | 1012.6 |
| 20260509042118 | 8 | 33 | 3.2 | 3.2 | 0.18 | 0.03 | 0.03 | 99 | 1012.8 |
| 20260509041615 | 8 | 74 | 4.8 | 4.8 | 0.18 | 0.03 | 0.03 | 99 | 1012.9 |
| 20260509041113 | 8 | 351 | 0.0 | 0.0 | 0.00 | 0.00 | 0.00 | 99 | 1013.1 |
| 20260509040611 | 8 | 357 | 0.0 | 0.0 | 0.00 | 0.00 | 0.00 | 99 | 1013.1 |
| 20260509040108 | 8 | 12 | 0.0 | 0.0 | 0.00 | 0.00 | 0.00 | 99 | 1012.8 |
| 20260509035604 | 8 | 108 | 3.2 | 4.8 | 0.13 | 0.53 | 0.53 | 99 | 1012.9 |
| 20260509035101 | 8 | 0 | 0.0 | 0.0 | 0.13 | 0.53 | 0.53 | 99 | 1013.1 |
| 20260509034559 | 8 | 127 | 0.0 | 0.0 | 0.00 | 0.51 | 0.51 | 99 | 1013.3 |
| 20260509034056 | 8 | 176 | 4.8 | 4.8 | 0.00 | 0.51 | 0.51 | 99 | 1013.3 |
| 20260509033553 | 8 | 41 | 1.6 | 3.2 | 0.18 | 0.51 | 0.51 | 99 | 1013.2 |
| 20260509033050 | 8 | 24 | 1.6 | 3.2 | 0.18 | 0.51 | 0.51 | 99 | 1013.3 |
| 20260509032547 | 8 | 11 | 1.6 | 3.2 | 0.00 | 0.48 | 0.48 | 99 | 1013.3 |
| 20260509032044 | 8 | 16 | 1.6 | 3.2 | 0.00 | 0.48 | 0.48 | 99 | 1013.4 |
| 20260509031542 | 8 | 143 | 3.2 | 4.8 | 0.18 | 0.48 | 0.48 | 99 | 1013.4 |
| 20260509031039 | 8 | 90 | 1.6 | 3.2 | 0.18 | 0.48 | 0.48 | 99 | 1013.7 |
| 20260509030537 | 8 | 264 | 0.0 | 0.0 | 0.00 | 0.46 | 0.46 | 99 | 1013.4 |
| 20260509030033 | 8 | 20 | 0.0 | 0.0 | 0.00 | 0.46 | 0.46 | 99 | 1013.6 |
| 20260509025530 | 8 | 19 | 0.0 | 0.0 | 0.13 | 0.46 | 0.46 | 99 | 1013.7 |
| 20260509025025 | 8 | 332 | 0.0 | 0.0 | 0.13 | 0.46 | 0.46 | 99 | 1013.8 |
| 20260509024521 | 8 | 355 | 0.0 | 0.0 | 0.00 | 0.43 | 0.43 | 99 | 1013.9 |
| 20260509024018 | 8 | 103 | 0.0 | 0.0 | 0.00 | 0.43 | 0.43 | 99 | 1013.9 |
| 20260509023515 | 8 | 353 | 0.0 | 0.0 | 0.18 | 0.43 | 0.43 | 99 | 1014.0 |
| 20260509023012 | 8 | 343 | 0.0 | 0.0 | 0.18 | 0.43 | 0.43 | 99 | 1014.1 |
| 20260509022508 | 8 | 343 | 0.0 | 0.0 | 0.00 | 0.41 | 0.41 | 99 | 1014.2 |
| 20260509022006 | 9 | 349 | 0.0 | 0.0 | 0.13 | 0.41 | 0.41 | 99 | 1014.0 |
| 20260509021503 | 9 | 344 | 0.0 | 0.0 | 0.30 | 0.41 | 0.41 | 99 | 1014.0 |
| 20260509021000 | 9 | 343 | 0.0 | 0.0 | 0.18 | 0.38 | 0.38 | 99 | 1014.0 |
| 20260509020458 | 9 | 337 | 0.0 | 0.0 | 0.00 | 0.36 | 0.36 | 99 | 1013.6 |
| 20260509015955 | 9 | 335 | 1.6 | 3.2 | 0.00 | 0.36 | 0.36 | 99 | 1013.5 |
| 20260509015454 | 9 | 354 | 0.0 | 0.0 | 0.13 | 0.36 | 0.36 | 99 | 1013.3 |
| 20260509014950 | 9 | 359 | 0.0 | 0.0 | 0.13 | 0.36 | 0.36 | 99 | 1013.1 |
| 20260509014447 | 9 | 39 | 3.2 | 3.2 | 0.00 | 0.33 | 0.33 | 99 | 1012.9 |
| 20260509013943 | 9 | 357 | 0.0 | 0.0 | 0.00 | 0.33 | 0.33 | 99 | 1013.2 |
| 20260509013440 | 9 | 2 | 0.0 | 0.0 | 0.18 | 0.33 | 0.33 | 99 | 1013.1 |
| 20260509012936 | 9 | 346 | 0.0 | 0.0 | 0.18 | 0.33 | 0.33 | 99 | 1012.8 |
| 20260509012433 | 9 | 62 | 3.2 | 3.2 | 0.00 | 0.30 | 0.30 | 99 | 1012.5 |
| 20260509011930 | 9 | 78 | 4.8 | 4.8 | 0.00 | 0.30 | 0.30 | 99 | 1012.9 |
| 20260509011427 | 9 | 17 | 1.6 | 3.2 | 0.00 | 0.30 | 0.30 | 99 | 1012.9 |
| 20260509010925 | 9 | 11 | 1.6 | 3.2 | 0.13 | 0.30 | 0.30 | 99 | 1012.9 |
| 20260509010422 | 9 | 36 | 0.0 | 0.0 | 0.13 | 0.30 | 0.30 | 99 | 1012.7 |
| 20260509005919 | 9 | 213 | 4.8 | 4.8 | 0.00 | 0.28 | 0.28 | 99 | 1012.7 |
| 20260509005417 | 9 | 39 | 0.0 | 0.0 | 0.00 | 0.28 | 0.28 | 99 | 1012.5 |
| 20260509004917 | 9 | 327 | 0.0 | 3.2 | 0.00 | 0.28 | 0.28 | 99 | 1012.7 |
| 20260509004414 | 9 | 186 | 4.8 | 4.8 | 0.00 | 0.28 | 0.28 | 99 | 1012.8 |
| 20260509003912 | 9 | 334 | 0.0 | 0.0 | 0.00 | 0.28 | 0.28 | 99 | 1012.7 |
| 20260509003409 | 9 | 10 | 0.0 | 0.0 | 0.00 | 0.28 | 0.28 | 99 | 1012.3 |
| 20260509002906 | 9 | 14 | 0.0 | 3.2 | 0.00 | 0.28 | 0.28 | 99 | 1012.3 |
| 20260509002404 | 9 | 349 | 0.0 | 0.0 | 0.00 | 0.28 | 0.28 | 99 | 1012.2 |
| 20260509001901 | 9 | 354 | 0.0 | 0.0 | 0.00 | 0.28 | 0.28 | 99 | 1012.2 |
| 20260509001357 | 9 | 343 | 0.0 | 0.0 | 0.00 | 0.28 | 0.28 | 99 | 1012.5 |
| 20260509000854 | 9 | 345 | 0.0 | 0.0 | 0.00 | 0.28 | 0.28 | 99 | 1012.3 |
| 20260509000352 | 9 | 347 | 0.0 | 0.0 | 0.00 | 0.28 | 0.28 | 99 | 1012.2 |
| 20260508235848 | 9 | 344 | 0.0 | 0.0 | 0.00 | 0.28 | 0.28 | 99 | 1012.3 |
| 20260508235345 | 9 | 344 | 0.0 | 0.0 | 0.00 | 0.28 | 0.28 | 99 | 1012.1 |
| 20260508234842 | 9 | 344 | 0.0 | 0.0 | 0.00 | 0.28 | 0.28 | 99 | 1011.9 |
| 20260508234338 | 9 | 341 | 0.0 | 0.0 | 0.00 | 0.28 | 0.28 | 99 | 1012.1 |
| 20260508233837 | 9 | 339 | 0.0 | 0.0 | 0.00 | 0.28 | 0.28 | 99 | 1011.9 |
| 20260508233336 | 9 | 299 | 3.2 | 3.2 | 0.00 | 0.28 | 0.28 | 99 | 1011.8 |
| 20260508232832 | 9 | 5 | 0.0 | 0.0 | 0.00 | 0.28 | 0.28 | 99 | 1011.8 |
| 20260508232329 | 10 | 10 | 0.0 | 0.0 | 0.00 | 0.28 | 0.28 | 99 | 1011.9 |
| 20260508231828 | 10 | 168 | 4.8 | 4.8 | 0.00 | 0.28 | 0.28 | 99 | 1011.7 |
| 20260508231324 | 9 | 285 | 3.2 | 3.2 | 0.00 | 0.28 | 0.28 | 98 | 1012.1 |
| 20260508230820 | 9 | 344 | 0.0 | 0.0 | 0.00 | 0.28 | 0.28 | 99 | 1012.3 |
| 20260508230317 | 9 | 326 | 0.0 | 0.0 | 0.00 | 0.28 | 0.28 | 99 | 1012.3 |
| 20260508225815 | 9 | 343 | 0.0 | 0.0 | 0.00 | 0.28 | 0.28 | 99 | 1012.6 |
| 20260508225311 | 9 | 343 | 0.0 | 0.0 | 0.00 | 0.28 | 0.28 | 99 | 1012.4 |
| 20260508224809 | 9 | 343 | 0.0 | 0.0 | 0.00 | 0.28 | 0.28 | 99 | 1012.5 |
| 20260508224306 | 9 | 345 | 0.0 | 0.0 | 0.00 | 0.28 | 0.28 | 99 | 1012.5 |
| 20260508223804 | 9 | 339 | 0.0 | 0.0 | 0.00 | 0.28 | 0.28 | 99 | 1012.5 |
| 20260508223301 | 9 | 344 | 0.0 | 0.0 | 0.00 | 0.28 | 0.28 | 99 | 1012.6 |
| 20260508222758 | 9 | 343 | 0.0 | 0.0 | 0.00 | 0.28 | 0.28 | 99 | 1012.7 |
| 20260508222255 | 9 | 340 | 0.0 | 0.0 | 0.00 | 0.28 | 0.28 | 99 | 1012.5 |
| 20260508221752 | 9 | 336 | 1.6 | 3.2 | 0.00 | 0.28 | 0.28 | 99 | 1012.5 |
| 20260508221247 | 9 | 341 | 0.0 | 0.0 | 0.00 | 0.28 | 0.28 | 99 | 1012.6 |
| 20260508220743 | 10 | 344 | 0.0 | 0.0 | 0.18 | 0.28 | 0.28 | 99 | 1012.5 |
| 20260508220240 | 10 | 343 | 0.0 | 0.0 | 0.18 | 0.28 | 0.28 | 99 | 1012.7 |
| 20260508215737 | 10 | 344 | 1.6 | 3.2 | 0.13 | 0.25 | 0.25 | 98 | 1012.8 |
| 20260508215233 | 10 | 62 | 3.2 | 4.8 | 0.30 | 0.25 | 0.25 | 98 | 1012.7 |
| 20260508214731 | 10 | 341 | 0.0 | 0.0 | 0.18 | 0.23 | 0.23 | 97 | 1012.7 |
| 20260508214228 | 10 | 340 | 0.0 | 0.0 | 0.13 | 0.20 | 0.20 | 95 | 1013.1 |
| 20260508213724 | 10 | 341 | 0.0 | 0.0 | 0.13 | 0.20 | 0.20 | 95 | 1013.2 |
| 20260508213221 | 10 | 343 | 0.0 | 0.0 | 0.18 | 0.18 | 0.18 | 93 | 1013.1 |